Probability
0 0 0 0 0 0 0 0 0 0 0 0 0 0 0 0 0 0 0 0 1 2 3 1 0 0 0 0 0 0 0 0 0 0 0 0 0 0 0 0 0 0 0
0 0 0 0 0 0 0 0 0 0 0 0 0 0 0 0 0 0 0 0 1 2 2 1 0 0 0 0 0 0 0 0 0 0 0 0 0 0 0 0 0 0 0
0 0 0 0 0 0 0 0 0 0 0 0 0 0 0 0 0 0 0 0 1 1 1 1 0 0 0 0 0 0 0 0 0 0 1 1 0 0 0 0 0 0 0
0 0 0 0 0 0 0 0 0 0 0 0 0 0 0 0 0 0 0 0 0 0 0 0 0 0 0 1 1 0 0 0 0 1 2 2 1 0 0 0 0 0 0
0 0 0 0 0 0 0 0 0 0 0 0 0 0 0 0 0 0 0 0 0 0 0 0 0 0 0 1 1 0 0 0 1 2 3 2 1 1 1 0 0 0 0
0 0 0 0 0 0 0 0 0 0 0 0 0 0 0 0 0 0 0 0 0 0 0 0 0 0 0 1 1 0 0 0 1 2 3 2 1 2 2 1 0 0 0
0 0 0 0 0 0 0 0 0 0 0 0 0 0 0 0 0 0 0 0 0 0 0 0 0 0 0 0 0 0 0 0 1 2 3 2 2 3 3 2 0 0 0
0 0 0 0 0 0 0 0 0 0 0 0 0 0 0 0 0 0 0 0 0 0 0 0 0 0 0 0 0 0 0 0 1 2 3 3 3 3 3 2 0 0 0
0 0 0 0 0 0 0 0 0 0 0 0 0 0 0 0 0 0 0 0 0 0 0 0 0 0 0 0 0 0 0 0 0 1 3 3 3 3 3 2 0 0 0
0 0 0 0 0 0 0 0 0 0 0 0 0 0 0 0 0 0 0 0 0 0 0 0 0 0 0 0 0 0 0 0 0 0 1 1 1 2 2 1 0 0 0
0 0 0 0 0 0 0 0 0 0 0 0 0 0 0 0 0 0 0 0 0 0 0 0 0 0 0 0 0 0 0 0 0 0 0 0 0 1 1 0 0 0 0
0 0 0 0 0 0 0 0 0 0 0 0 0 0 0 0 0 0 0 0 0 0 0 0 0 0 0 0 0 0 0 0 0 0 0 0 0 0 0 0 0 0 0
0 0 0 0 0 0 0 0 0 0 0 0 0 0 0 0 0 0 0 0 0 0 0 0 0 0 0 0 0 0 0 0 0 0 0 0 0 0 0 0 0 0 0
0 0 0 0 0 0 0 0 0 0 0 0 0 0 0 0 0 0 0 0 0 0 0 0 0 0 0 0 0 0 0 0 0 0 0 0 0 0 0 0 0 0 0
0 0 0 0 0 0 0 0 0 0 0 0 0 0 0 0 0 0 0 0 0 0 0 0 0 0 0 0 0 0 0 0 0 0 0 0 0 0 0 0 0 0 0
0 0 0 0 0 0 0 0 0 0 1 1 1 1 1 0 0 0 0 0 0 0 0 0 0 0 0 0 0 0 0 0 0 0 0 0 0 0 0 0 0 0 0
0 0 0 0 0 0 0 0 0 0 1 2 2 2 2 1 0 0 0 0 0 0 0 0 0 0 0 0 0 0 0 0 0 0 0 0 0 0 0 0 0 0 0
0 0 0 0 0 0 0 0 0 0 1 1 2 2 2 1 0 0 0 0 0 0 0 0 0 0 0 0 0 0 0 0 0 0 0 0 0 0 0 0 0 0 0
0 0 0 0 0 0 0 0 0 0 0 0 1 1 1 1 0 0 0 0 0 0 0 0 0 0 0 0 0 0 0 0 0 0 0 0 0 0 0 0 0 0 0
0 0 0 0 0 0 0 0 0 0 0 0 0 0 0 0 0 0 0 0 0 0 0 0 0 0 0 0 0 0 0 0 0 0 0 0 0 0 0 0 0 0 0
0 0 0 0 0 0 0 0 0 0 0 0 0 0 0 0 0 0 0 0 0 0 0 0 0 0 0 0 0 0 0 0 0 0 0 0 0 0 0 0 0 0 0
0 0 0 0 0 0 0 0 0 0 0 0 0 0 0 0 0 0 0 0 0 0 0 0 0 0 0 0 0 0 0 0 0 0 0 0 0 0 0 0 0 0 0
0 0 0 0 0 0 0 0 0 0 0 0 0 0 0 0 0 0 0 0 0 0 0 0 0 0 0 0 0 0 0 0 0 0 0 0 0 0 0 0 0 0 0
0 0 0 0 0 0 0 0 0 0 0 0 0 0 0 0 0 0 0 0 0 0 0 0 0 0 0 0 0 0 0 0 0 0 0 0 0 0 0 0 0 0 0
0 0 0 0 0 0 0 0 0 0 0 0 0 0 0 0 0 0 0 0 0 0 0 0 0 0 0 0 0 0 0 0 0 0 0 0 0 0 0 0 0 0 0
0 0 0 0 0 0 0 0 0 0 0 0 0 0 0 0 0 0 0 0 0 0 0 0 0 0 0 0 0 0 0 0 0 0 0 0 0 0 0 0 0 0 0
Wind_Speed
2 3 3 3 3 3 4 4 4 5 6 7 7 8 8 8 8 7 6 13 14 13 12 12 12 11 10 10 10 10 9 8 8 9 10 10 10 10 9 9 9 9 9
2 2 3 3 3 4 4 4 5 5 5 6 7 8 7 7 8 7 7 9 13 14 13 13 12 12 11 11 10 10 9 9 9 10 10 10 10 10 9 9 9 9 9
2 3 3 3 3 4 4 4 6 5 5 5 7 7 7 7 7 8 7 6 7 12 14 14 13 12 12 11 10 10 10 10 10 11 11 10 10 10 9 9 9 10 10
3 3 3 3 4 3 3 4 3 4 4 4 5 5 5 5 7 7 7 7 6 6 10 14 14 14 12 12 12 11 11 11 11 11 11 11 11 11 10 10 10 10 10
2 3 2 3 3 3 3 3 3 3 5 5 5 5 5 6 6 6 7 8 8 7 6 9 13 15 14 13 12 12 12 11 11 11 11 11 11 11 11 10 10 11 11
2 2 2 3 3 3 2 3 5 4 4 4 5 5 5 5 5 6 6 6 7 8 7 7 6 9 13 13 12 11 11 11 11 11 11 11 11 11 11 10 10 11 11
1 2 1 2 2 2 2 3 4 5 3 3 3 4 5 6 5 5 5 5 7 7 7 7 6 5 6 11 12 11 11 11 11 11 11 11 11 11 10 10 10 11 11
1 1 2 2 2 2 3 3 3 2 2 1 1 1 2 3 4 4 4 5 5 5 6 7 7 7 6 5 9 11 11 11 11 11 11 10 10 10 10 10 10 10 10
2 0 1 2 2 3 2 2 2 2 2 1 1 1 0 1 3 3 5 4 5 4 5 5 7 7 7 6 6 10 11 11 11 11 11 10 10 9 9 9 9 9 9
2 1 0 1 2 2 2 2 2 2 2 1 1 0 1 1 1 2 3 4 4 5 5 4 5 6 6 6 7 11 11 10 10 10 10 10 10 10 9 9 9 9 9
2 1 1 1 2 1 2 2 1 1 1 1 1 1 1 1 1 1 2 2 3 3 3 4 4 4 5 6 5 9 10 10 10 10 9 9 9 9 9 9 8 9 9
2 2 1 1 1 1 1 1 1 1 1 0 1 1 1 1 1 1 1 2 2 3 3 3 3 3 3 4 7 9 9 9 9 9 9 9 8 8 8 8 8 8 9
2 2 1 1 1 1 1 1 1 1 1 0 0 0 0 1 1 1 1 2 2 3 2 2 2 2 2 3 5 6 8 8 7 8 8 8 8 8 8 8 8 8 8
2 2 1 1 2 2 2 1 1 1 1 1 1 0 0 0 1 1 1 2 2 3 2 3 2 2 2 2 4 1 5 7 6 6 7 7 7 7 7 7 7 7 8
2 2 2 2 2 2 2 2 1 1 1 1 1 1 1 1 1 1 1 2 2 2 2 3 2 2 2 2 2 1 3 7 6 5 6 6 6 6 6 6 6 6 7
3 3 3 3 3 3 3 2 1 1 2 2 1 1 1 1 1 1 1 1 1 1 1 3 2 3 2 2 2 1 3 6 5 4 4 4 4 4 5 4 5 5 5
4 4 3 3 3 3 3 3 2 2 2 2 2 2 2 2 2 2 1 1 1 1 2 3 3 3 3 2 3 1 1 1 3 4 3 2 3 3 3 3 3 3 4
4 4 4 4 3 3 2 2 2 2 2 2 2 2 2 2 2 1 1 2 1 1 2 3 3 3 3 2 2 2 1 1 1 4 2 1 1 2 2 2 2 2 3
4 4 4 4 3 3 3 3 3 3 2 2 2 2 2 2 2 2 1 1 2 2 2 3 3 2 2 2 2 2 2 1 1 3 3 3 1 0 1 1 2 2 2
5 5 5 4 4 4 4 4 3 3 2 2 2 2 2 2 2 3 2 2 2 2 3 3 3 3 2 2 2 2 2 2 2 2 2 2 3 3 2 1 1 1 2
5 4 4 4 4 4 3 3 3 3 3 3 3 2 2 2 2 1 0 1 2 2 3 3 3 3 3 3 3 2 2 2 2 2 2 2 2 2 3 3 3 2 2
5 5 5 5 5 3 3 2 3 4 4 4 3 3 3 4 4 3 1 1 1 1 2 3 3 3 3 3 2 3 3 3 2 1 3 3 2 2 2 1 0 1 2
6 6 6 5 5 4 5 6 5 4 4 4 4 4 3 3 4 4 5 5 3 1 2 3 3 2 3 2 3 4 3 3 3 1 3 3 2 3 2 1 1 2 3
5 5 5 5 4 4 6 7 7 6 4 5 4 4 4 5 4 4 3 4 3 3 3 3 3 2 2 2 3 4 4 4 4 2 2 4 3 3 2 2 3 3 4
5 5 5 5 5 5 7 7 7 5 4 4 4 4 4 4 4 4 4 4 4 3 2 1 2 1 1 1 2 3 3 4 4 2 2 3 3 4 3 3 2 5 5
5 5 5 6 6 6 7 9 9 4 5 4 4 4 4 4 5 6 6 5 4 4 3 4 4 4 4 4 5 5 3 4 3 2 2 3 3 3 3 2 2 2 3
Wind_Direction
80 87 87 83 83 89 94 90 86 85 81 72 66 66 66 64 61 62 66 56 54 57 60 63 61 63 68 69 68 68 70 74 82 86 84 82 79 76 72 69 70 69 67
80 85 87 85 83 81 81 87 84 82 80 76 71 68 64 64 61 61 64 69 58 52 55 59 59 59 63 68 69 68 70 76 85 88 85 82 78 74 71 69 70 68 64
80 90 88 93 92 90 91 85 87 83 84 86 80 71 64 60 62 64 62 58 65 62 53 53 55 57 60 64 69 69 73 77 82 84 84 81 78 75 72 70 69 66 62
71 81 90 92 94 91 89 91 94 94 89 82 76 71 71 65 58 58 62 62 56 55 60 53 51 51 54 59 66 71 74 77 80 82 82 80 76 73 71 68 65 63 60
77 97 91 96 101 103 103 102 94 90 92 90 87 78 68 63 57 59 61 59 59 56 60 67 59 51 49 52 59 67 72 75 78 78 79 78 76 72 69 68 64 62 59
73 92 115 116 110 112 108 106 101 93 90 95 89 81 74 74 62 54 55 60 55 54 53 55 60 62 52 47 50 61 70 74 76 76 77 77 74 71 70 70 66 64 60
82 96 120 122 123 127 128 125 118 116 113 111 111 104 93 76 68 63 53 57 63 57 58 57 51 50 64 61 50 57 63 70 73 74 76 75 73 70 69 68 66 64 61
84 127 165 144 141 133 143 139 141 145 129 156 175 157 139 117 79 62 64 58 56 58 56 58 58 55 51 60 60 57 57 64 69 71 73 73 69 66 67 67 67 64 62
73 62 145 142 151 162 157 171 173 181 178 183 277 305 298 95 114 94 71 67 58 55 58 55 57 55 57 58 62 61 54 56 63 65 67 67 68 67 66 64 66 64 61
98 82 150 159 167 163 163 187 205 217 222 213 164 340 9 78 186 135 114 84 66 55 52 54 54 54 55 64 64 58 54 52 57 62 64 64 65 65 65 65 62 60 58
111 112 134 159 164 165 166 177 198 230 240 271 250 171 138 149 222 176 134 120 100 73 54 51 52 52 56 62 65 62 56 52 55 59 61 60 60 60 62 61 58 58 56
128 115 111 155 161 161 168 175 194 184 240 284 281 230 210 208 191 176 160 155 126 101 76 57 51 54 58 68 66 64 62 57 57 58 58 57 56 55 57 58 58 57 54
150 130 141 152 141 152 167 170 168 144 154 181 277 319 289 300 226 195 171 155 147 133 120 97 67 62 68 76 79 75 74 62 58 58 57 54 51 48 48 50 52 52 49
149 141 156 128 121 133 144 140 149 127 121 120 78 79 157 111 149 164 179 172 173 155 147 116 100 70 62 77 67 47 90 74 64 63 59 54 50 46 44 46 45 45 43
152 161 164 145 132 137 137 131 132 125 118 115 121 123 121 115 140 159 183 223 242 188 147 138 140 111 94 73 64 107 96 87 76 68 62 56 53 48 47 49 46 41 39
165 166 167 152 143 138 144 132 124 99 116 97 73 115 110 116 112 141 181 224 267 263 124 125 141 139 123 122 100 79 82 99 86 77 68 61 55 49 49 47 43 38 36
177 176 171 168 154 147 150 152 152 136 133 133 136 119 114 116 138 137 147 158 162 160 149 132 138 147 157 163 139 141 125 143 115 107 85 66 55 48 46 39 34 30 27
183 186 180 178 167 162 162 163 159 164 165 152 137 136 130 124 134 143 155 153 142 164 175 157 158 167 175 171 175 183 188 169 138 116 125 91 54 39 37 25 17 12 7
185 190 190 187 187 180 172 180 185 183 180 178 165 157 152 153 155 136 161 158 145 145 165 174 161 162 188 190 194 202 203 213 218 154 165 183 186 237 344 354 356 353 349
191 194 196 192 194 196 194 192 190 187 186 176 173 173 171 170 169 148 156 157 154 154 163 176 175 179 189 197 216 217 211 201 227 216 191 197 185 198 214 258 309 324 322
201 194 199 197 196 204 207 202 195 192 188 178 183 182 151 90 50 68 103 158 167 177 179 187 190 191 196 200 219 226 233 236 225 233 239 225 215 223 208 211 237 281 290
201 194 201 202 199 205 168 219 239 198 199 192 189 184 163 169 152 149 115 25 343 234 212 206 210 214 218 214 223 237 236 242 239 211 251 248 240 249 252 254 114 237 263
201 202 206 206 208 189 173 195 227 230 216 207 200 193 179 168 185 180 165 173 185 252 285 270 235 239 243 229 226 233 240 253 266 271 259 254 243 252 251 234 141 217 252
198 208 211 208 208 188 180 190 202 225 222 214 211 210 203 197 197 206 197 195 200 195 209 232 246 257 269 255 239 250 255 254 252 237 253 264 260 261 258 248 170 213 245
199 204 205 206 207 194 186 193 202 214 220 217 212 214 217 211 162 192 211 211 215 205 170 206 334 334 358 315 275 242 235 240 248 231 224 266 275 273 256 245 200 195 224
204 204 205 211 212 207 182 194 211 212 215 215 211 208 212 220 175 193 215 217 222 224 213 195 203 213 222 206 220 237 243 245 255 245 197 244 266 277 268 236 250 237 232